{"data":{"norad_id":68918,"epoch":"2026-05-25T02:50:18.522816Z","epoch_age_seconds":60790,"freshness":"FRESH","line1":"1 68918U 26097Z   26145.11826994  .00049139  00000+0  89941-3 0  9993","line2":"2 68918  97.2867 340.8543 0001023 106.8628 253.2735 15.49193539  3949","mean_motion":15.49193539,"eccentricity":0.0001023,"inclination_deg":97.2867,"raan_deg":340.8543,"arg_perigee_deg":106.8628,"mean_anomaly_deg":253.2735,"bstar":0.00089941,"rev_number":394,"period_min":92.951588277958,"perigee_km":418.388635703,"apogee_km":419.77934711784,"semimajor_km":6797.2209914104,"source":"CELESTRAK","updated_at":"2026-05-25T13:38:22.071401Z"}}